Location: Ash Observatory
(39.7321°N, 75.2004°W)
Time: 17:40:25
(UTC-04:00)

Envisat - Visible Passes

Search period start: 22 October 2019 00:00
Search period end: 01 November 2019 00:00
Orbit: 764 x 766 km, 98.1° (Epoch: 22 October)

Date Brightness Start Highest point End Pass type
(mag) Time Alt. Az. Time Alt. Az. Time Alt. Az.
22 Oct 2.9 18:56:11 10° SSE 19:01:13 73° ENE 19:06:18 10° N visible
22 Oct 6.2 20:38:47 10° WSW 20:40:45 12° W 20:42:42 10° WNW visible
23 Oct 5.1 19:59:18 10° SSW 20:03:38 28° W 20:07:59 10° NW visible
24 Oct 6.6 06:31:58 10° ENE 06:33:35 11° E 06:35:11 10° ESE visible
24 Oct 3.5 19:21:41 10° S 19:26:43 64° W 19:31:46 10° NNW visible
25 Oct 3.1 18:45:02 10° SSE 18:49:59 57° ENE 18:54:58 10° N visible
25 Oct 5.9 20:26:20 10° SW 20:29:21 16° W 20:32:24 10° NW visible
26 Oct 4.6 19:47:40 10° SSW 19:52:18 35° W 19:56:57 10° NNW visible
27 Oct 3.1 19:10:22 10° S 19:15:26 81° WSW 19:20:33 10° NNW visible
28 Oct 3.3 18:33:58 10° SE 18:38:46 45° ENE 18:43:36 10° N visible
28 Oct 5.6 20:14:17 10° SW 20:17:59 20° W 20:21:42 10° NW visible
29 Oct 6.1 06:44:49 10° NE 06:47:59 16° E 06:51:09 10° SE visible
29 Oct 4.1 19:36:09 10° S 19:40:58 45° W 19:45:52 10° NNW visible
30 Oct 2.9 18:59:07 10° SSE 19:04:11 80° ENE 19:09:17 10° N visible
30 Oct 6.2 20:42:32 10° WSW 20:43:46 11° W 20:45:00 10° WNW visible
31 Oct 3.6 18:22:59 10° SE 18:27:34 36° ENE 18:32:11 10° N visible
31 Oct 5.2 20:02:27 10° SSW 20:06:37 25° W 20:10:49 10° NW visible
